Time,TemperatureF,DewpointF,PressureIn,WindDirection,WindDirectionDegrees,WindSpeedMPH,WindSpeedGustMPH,Humidity,HourlyPrecipIn,Conditions,Clouds,dailyrainin,SoftwareType,DateUTC
2013-03-15 00:00:00,35.6,16.9,30.20,WSW,248,1.0,6.0,46,0.00,,,0.00,VWS V14.01,2013-03-15 04:00:00,
2013-03-15 00:05:00,35.5,16.8,30.20,WSW,248,1.0,4.0,46,0.00,,,0.00,VWS V14.01,2013-03-15 04:05:00,
2013-03-15 00:10:00,35.5,17.3,30.20,SW,225,0.0,2.0,47,0.00,,,0.00,VWS V14.01,2013-03-15 04:10:00,
2013-03-15 00:15:00,35.5,16.8,30.20,SW,225,1.0,3.0,46,0.00,,,0.00,VWS V14.01,2013-03-15 04:15:00,
2013-03-15 00:20:00,35.5,16.3,30.20,WSW,248,2.0,6.0,45,0.00,,,0.00,VWS V14.01,2013-03-15 04:20:00,
2013-03-15 00:25:00,35.6,16.4,30.20,WSW,248,1.0,5.0,45,0.00,,,0.00,VWS V14.01,2013-03-15 04:25:00,
2013-03-15 00:30:00,35.6,16.9,30.20,West,270,1.0,3.0,46,0.00,,,0.00,VWS V14.01,2013-03-15 04:30:00,
2013-03-15 00:35:00,35.6,16.4,30.20,SW,225,1.0,5.0,45,0.00,,,0.00,VWS V14.01,2013-03-15 04:35:00,
2013-03-15 00:40:00,35.8,17.1,30.20,SW,225,1.0,2.0,46,0.00,,,0.00,VWS V14.01,2013-03-15 04:40:00,
2013-03-15 00:45:00,35.9,17.1,30.20,SW,225,1.0,5.0,46,0.00,,,0.00,VWS V14.01,2013-03-15 04:45:00,
2013-03-15 00:50:00,36.0,16.7,30.20,West,270,1.0,3.0,45,0.00,,,0.00,VWS V14.01,2013-03-15 04:50:00,
2013-03-15 00:55:00,36.0,16.7,30.20,SW,225,1.0,3.0,45,0.00,,,0.00,VWS V14.01,2013-03-15 04:55:00,
2013-03-15 01:00:00,36.2,16.4,30.20,West,270,1.0,3.0,44,0.00,,,0.00,VWS V14.01,2013-03-15 05:00:00,
2013-03-15 01:05:00,36.3,16.5,30.20,WSW,248,1.0,4.0,44,0.00,,,0.00,VWS V14.01,2013-03-15 05:05:00,
2013-03-15 01:10:00,36.5,17.2,30.20,WSW,248,1.0,3.0,45,0.00,,,0.00,VWS V14.01,2013-03-15 05:10:00,
2013-03-15 01:15:00,36.5,16.7,30.18,WSW,248,1.0,3.0,44,0.00,,,0.00,VWS V14.01,2013-03-15 05:15:00,
2013-03-15 01:20:00,36.6,16.2,30.18,SW,225,1.0,3.0,43,0.00,,,0.00,VWS V14.01,2013-03-15 05:20:00,
2013-03-15 01:25:00,36.6,16.2,30.18,WSW,248,1.0,4.0,43,0.00,,,0.00,VWS V14.01,2013-03-15 05:25:00,
2013-03-15 01:30:00,36.6,16.2,30.18,WSW,248,0.0,2.0,43,0.00,,,0.00,VWS V14.01,2013-03-15 05:30:00,
2013-03-15 01:35:00,36.6,16.2,30.18,WSW,248,0.0,2.0,43,0.00,,,0.00,VWS V14.01,2013-03-15 05:35:00,
2013-03-15 01:40:00,36.6,16.8,30.18,West,270,0.0,2.0,44,0.00,,,0.00,VWS V14.01,2013-03-15 05:40:00,
2013-03-15 01:45:00,36.6,16.8,30.17,West,270,0.0,1.0,44,0.00,,,0.00,VWS V14.01,2013-03-15 05:45:00,
2013-03-15 01:50:00,36.6,16.2,30.17,West,270,0.0,1.0,43,0.00,,,0.00,VWS V14.01,2013-03-15 05:50:00,
2013-03-15 01:55:00,36.6,16.2,30.17,West,270,0.0,0.0,43,0.00,,,0.00,VWS V14.01,2013-03-15 05:55:00,
2013-03-15 02:00:00,36.5,17.2,30.16,SE,135,0.0,2.0,45,0.00,,,0.00,VWS V14.01,2013-03-15 06:00:00,
2013-03-15 02:05:00,36.5,16.7,30.16,SE,135,0.0,1.0,44,0.00,,,0.00,VWS V14.01,2013-03-15 06:05:00,
2013-03-15 02:10:00,36.5,17.2,30.16,SE,135,0.0,0.0,45,0.00,,,0.00,VWS V14.01,2013-03-15 06:10:00,
2013-03-15 02:15:00,36.3,17.0,30.16,SE,135,0.0,1.0,45,0.00,,,0.00,VWS V14.01,2013-03-15 06:15:00,
2013-03-15 02:20:00,36.3,18.0,30.16,SE,135,0.0,2.0,47,0.00,,,0.00,VWS V14.01,2013-03-15 06:20:00,
2013-03-15 02:25:00,36.2,17.9,30.16,SE,135,0.0,0.0,47,0.00,,,0.00,VWS V14.01,2013-03-15 06:25:00,
2013-03-15 02:30:00,35.6,19.3,30.15,SE,135,0.0,0.0,51,0.00,,,0.00,VWS V14.01,2013-03-15 06:30:00,
2013-03-15 02:35:00,35.0,18.2,30.15,SE,135,0.0,1.0,50,0.00,,,0.00,VWS V14.01,2013-03-15 06:35:00,
2013-03-15 02:40:00,34.4,18.6,30.15,SE,135,0.0,0.0,52,0.00,,,0.00,VWS V14.01,2013-03-15 06:40:00,
2013-03-15 02:45:00,34.0,19.1,30.16,SE,135,0.0,0.0,54,0.00,,,0.00,VWS V14.01,2013-03-15 06:45:00,
2013-03-15 02:50:00,33.2,19.2,30.16,SE,135,0.0,0.0,56,0.00,,,0.00,VWS V14.01,2013-03-15 06:50:00,
2013-03-15 02:55:00,32.8,19.3,30.16,SE,135,0.0,0.0,57,0.00,,,0.00,VWS V14.01,2013-03-15 06:55:00,
2013-03-15 03:00:00,32.2,19.1,30.16,SE,135,0.0,1.0,58,0.00,,,0.00,VWS V14.01,2013-03-15 07:00:00,
2013-03-15 03:05:00,31.9,18.8,30.16,SE,135,0.0,1.0,58,0.00,,,0.00,VWS V14.01,2013-03-15 07:05:00,
2013-03-15 03:10:00,31.8,19.1,30.16,SE,135,0.0,0.0,59,0.00,,,0.00,VWS V14.01,2013-03-15 07:10:00,
2013-03-15 03:15:00,31.6,18.9,30.15,SE,135,0.0,0.0,59,0.00,,,0.00,VWS V14.01,2013-03-15 07:15:00,
2013-03-15 03:20:00,31.3,19.0,30.15,SE,135,0.0,1.0,60,0.00,,,0.00,VWS V14.01,2013-03-15 07:20:00,
2013-03-15 03:25:00,30.7,19.2,30.15,SE,135,0.0,0.0,62,0.00,,,0.00,VWS V14.01,2013-03-15 07:25:00,
2013-03-15 03:30:00,30.6,18.8,30.15,SE,135,0.0,0.0,61,0.00,,,0.00,VWS V14.01,2013-03-15 07:30:00,
2013-03-15 03:35:00,30.4,19.3,30.15,SE,135,0.0,0.0,63,0.00,,,0.00,VWS V14.01,2013-03-15 07:35:00,
2013-03-15 03:40:00,30.4,19.3,30.15,SE,135,0.0,0.0,63,0.00,,,0.00,VWS V14.01,2013-03-15 07:40:00,
2013-03-15 03:45:00,30.4,19.3,30.15,SE,135,0.0,0.0,63,0.00,,,0.00,VWS V14.01,2013-03-15 07:45:00,
2013-03-15 03:50:00,30.3,19.2,30.15,SE,135,0.0,0.0,63,0.00,,,0.00,VWS V14.01,2013-03-15 07:50:00,
2013-03-15 03:55:00,30.0,19.0,30.15,SE,135,0.0,0.0,63,0.00,,,0.00,VWS V14.01,2013-03-15 07:55:00,
2013-03-15 04:00:00,29.8,18.4,30.15,SE,135,0.0,0.0,62,0.00,,,0.00,VWS V14.01,2013-03-15 08:00:00,
2013-03-15 04:05:00,29.8,18.8,30.15,SE,135,0.0,0.0,63,0.00,,,0.00,VWS V14.01,2013-03-15 08:05:00,
2013-03-15 04:10:00,29.5,18.1,30.15,SE,135,0.0,0.0,62,0.00,,,0.00,VWS V14.01,2013-03-15 08:10:00,
2013-03-15 04:15:00,29.5,18.1,30.15,SE,135,0.0,1.0,62,0.00,,,0.00,VWS V14.01,2013-03-15 08:15:00,
2013-03-15 04:20:00,29.4,18.7,30.15,SE,135,0.0,0.0,64,0.00,,,0.00,VWS V14.01,2013-03-15 08:20:00,
2013-03-15 04:25:00,29.5,18.8,30.15,SE,135,0.0,0.0,64,0.00,,,0.00,VWS V14.01,2013-03-15 08:25:00,
2013-03-15 04:30:00,29.7,18.7,30.15,SE,135,0.0,0.0,63,0.00,,,0.00,VWS V14.01,2013-03-15 08:30:00,
2013-03-15 04:35:00,29.8,19.5,30.15,SE,135,0.0,0.0,65,0.00,,,0.00,VWS V14.01,2013-03-15 08:35:00,
2013-03-15 04:40:00,30.0,19.3,30.15,SE,135,0.0,0.0,64,0.00,,,0.00,VWS V14.01,2013-03-15 08:40:00,
2013-03-15 04:45:00,30.1,19.4,30.15,SE,135,0.0,0.0,64,0.00,,,0.00,VWS V14.01,2013-03-15 08:45:00,
2013-03-15 04:50:00,30.1,19.4,30.15,SE,135,0.0,0.0,64,0.00,,,0.00,VWS V14.01,2013-03-15 08:50:00,
2013-03-15 04:55:00,30.1,19.8,30.15,SE,135,0.0,0.0,65,0.00,,,0.00,VWS V14.01,2013-03-15 08:55:00,
2013-03-15 05:00:00,30.0,19.3,30.13,SE,135,0.0,0.0,64,0.00,,,0.00,VWS V14.01,2013-03-15 09:00:00,
2013-03-15 05:05:00,29.8,19.1,30.13,SE,135,0.0,0.0,64,0.00,,,0.00,VWS V14.01,2013-03-15 09:05:00,
2013-03-15 05:10:00,29.5,19.2,30.13,SE,135,0.0,0.0,65,0.00,,,0.00,VWS V14.01,2013-03-15 09:10:00,
2013-03-15 05:15:00,29.4,18.7,30.13,SE,135,0.0,0.0,64,0.00,,,0.00,VWS V14.01,2013-03-15 09:15:00,
2013-03-15 05:20:00,29.4,19.1,30.13,SE,135,0.0,0.0,65,0.00,,,0.00,VWS V14.01,2013-03-15 09:20:00,
2013-03-15 05:25:00,29.3,18.6,30.13,SE,135,0.0,0.0,64,0.00,,,0.00,VWS V14.01,2013-03-15 09:25:00,
2013-03-15 05:30:00,29.3,18.6,30.13,SE,135,0.0,0.0,64,0.00,,,0.00,VWS V14.01,2013-03-15 09:30:00,
2013-03-15 05:35:00,29.1,18.5,30.13,SE,135,0.0,0.0,64,0.00,,,0.00,VWS V14.01,2013-03-15 09:35:00,
2013-03-15 05:40:00,29.1,18.1,30.13,SE,135,0.0,0.0,63,0.00,,,0.00,VWS V14.01,2013-03-15 09:40:00,
2013-03-15 05:45:00,29.0,18.0,30.14,SE,135,0.0,0.0,63,0.00,,,0.00,VWS V14.01,2013-03-15 09:45:00,
2013-03-15 05:50:00,29.0,18.4,30.14,SE,135,0.0,1.0,64,0.00,,,0.00,VWS V14.01,2013-03-15 09:50:00,
2013-03-15 05:55:00,29.0,19.1,30.14,SE,135,0.0,1.0,66,0.00,,,0.00,VWS V14.01,2013-03-15 09:55:00,
2013-03-15 06:00:00,28.7,18.4,30.14,SE,135,0.0,0.0,65,0.00,,,0.00,VWS V14.01,2013-03-15 10:00:00,
2013-03-15 06:05:00,28.5,18.6,30.14,SE,135,0.0,1.0,66,0.00,,,0.00,VWS V14.01,2013-03-15 10:05:00,
2013-03-15 06:10:00,28.5,19.3,30.14,SE,135,0.0,2.0,68,0.00,,,0.00,VWS V14.01,2013-03-15 10:10:00,
2013-03-15 06:15:00,28.5,19.3,30.14,SE,135,0.0,0.0,68,0.00,,,0.00,VWS V14.01,2013-03-15 10:15:00,
2013-03-15 06:20:00,28.5,19.3,30.14,SE,135,0.0,1.0,68,0.00,,,0.00,VWS V14.01,2013-03-15 10:20:00,
2013-03-15 06:25:00,28.4,19.2,30.14,SE,135,0.0,1.0,68,0.00,,,0.00,VWS V14.01,2013-03-15 10:25:00,
2013-03-15 06:30:00,28.2,19.4,30.14,SE,135,0.0,1.0,69,0.00,,,0.00,VWS V14.01,2013-03-15 10:30:00,
2013-03-15 06:35:00,28.2,19.4,30.14,SE,135,0.0,1.0,69,0.00,,,0.00,VWS V14.01,2013-03-15 10:35:00,
2013-03-15 06:40:00,28.1,19.3,30.14,SE,135,0.0,1.0,69,0.00,,,0.00,VWS V14.01,2013-03-15 10:40:00,
2013-03-15 06:45:00,28.1,19.6,30.14,SE,135,0.0,1.0,70,0.00,,,0.00,VWS V14.01,2013-03-15 10:45:00,
2013-03-15 06:50:00,28.1,19.6,30.14,SE,135,0.0,0.0,70,0.00,,,0.00,VWS V14.01,2013-03-15 10:50:00,
2013-03-15 06:55:00,28.1,19.6,30.14,SE,135,0.0,0.0,70,0.00,,,0.00,VWS V14.01,2013-03-15 10:55:00,
2013-03-15 07:00:00,27.9,19.1,30.14,SE,135,0.0,0.0,69,0.00,,,0.00,VWS V14.01,2013-03-15 11:00:00,
2013-03-15 07:05:00,27.9,18.4,30.14,SE,135,0.0,0.0,67,0.00,,,0.00,VWS V14.01,2013-03-15 11:05:00,
2013-03-15 07:10:00,27.9,18.4,30.14,SE,135,0.0,0.0,67,0.00,,,0.00,VWS V14.01,2013-03-15 11:10:00,
2013-03-15 07:15:00,27.9,18.7,30.15,SE,135,0.0,0.0,68,0.00,,,0.00,VWS V14.01,2013-03-15 11:15:00,
2013-03-15 07:20:00,27.9,18.4,30.15,SE,135,0.0,0.0,67,0.00,,,0.00,VWS V14.01,2013-03-15 11:20:00,
2013-03-15 07:25:00,28.2,19.0,30.15,SE,135,0.0,0.0,68,0.00,,,0.00,VWS V14.01,2013-03-15 11:25:00,
2013-03-15 07:30:00,28.2,19.0,30.15,SE,135,0.0,0.0,68,0.00,,,0.00,VWS V14.01,2013-03-15 11:30:00,
2013-03-15 07:35:00,28.4,19.2,30.15,SE,135,0.0,0.0,68,0.00,,,0.00,VWS V14.01,2013-03-15 11:35:00,
2013-03-15 07:40:00,28.4,18.9,30.15,SE,135,0.0,0.0,67,0.00,,,0.00,VWS V14.01,2013-03-15 11:40:00,
2013-03-15 07:45:00,28.4,19.2,30.14,SE,135,0.0,0.0,68,0.00,,,0.00,VWS V14.01,2013-03-15 11:45:00,
2013-03-15 07:50:00,28.5,20.0,30.14,SE,135,0.0,0.0,70,0.00,,,0.00,VWS V14.01,2013-03-15 11:50:00,
2013-03-15 07:55:00,28.4,19.9,30.14,SE,135,0.0,0.0,70,0.00,,,0.00,VWS V14.01,2013-03-15 11:55:00,
2013-03-15 08:00:00,28.4,19.9,30.14,SE,135,0.0,0.0,70,0.00,,,0.00,VWS V14.01,2013-03-15 12:00:00,
2013-03-15 08:05:00,28.2,19.7,30.14,SE,135,0.0,0.0,70,0.00,,,0.00,VWS V14.01,2013-03-15 12:05:00,
2013-03-15 08:10:00,28.2,19.4,30.14,SE,135,0.0,0.0,69,0.00,,,0.00,VWS V14.01,2013-03-15 12:10:00,
2013-03-15 08:15:00,28.2,19.7,30.15,SE,135,0.0,0.0,70,0.00,,,0.00,VWS V14.01,2013-03-15 12:15:00,
2013-03-15 08:20:00,28.2,20.0,30.15,SE,135,0.0,0.0,71,0.00,,,0.00,VWS V14.01,2013-03-15 12:20:00,
2013-03-15 08:32:00,28.2,20.4,30.15,SE,135,0.0,0.0,72,0.00,,,0.00,VWS V14.01,2013-03-15 12:32:00,
2013-03-15 08:33:00,28.2,20.7,30.15,North,11,0.0,0.0,73,0.00,,,0.00,VWS V14.01,2013-03-15 12:33:00,
2013-03-15 08:38:00,28.4,21.2,30.15,North,11,0.0,0.0,74,0.00,,,0.00,VWS V14.01,2013-03-15 12:38:00,
2013-03-15 08:43:00,28.8,21.9,30.15,North,11,0.0,0.0,75,0.00,,,0.00,VWS V14.01,2013-03-15 12:43:00,
2013-03-15 08:49:00,29.3,22.4,30.14,North,11,0.0,0.0,75,0.00,,,0.00,VWS V14.01,2013-03-15 12:49:00,
2013-03-15 08:54:00,29.8,23.2,30.14,North,11,0.0,0.0,76,0.00,,,0.00,VWS V14.01,2013-03-15 12:54:00,
2013-03-15 08:59:00,30.3,23.3,30.14,North,11,0.0,0.0,75,0.00,,,0.00,VWS V14.01,2013-03-15 12:59:00,
2013-03-15 09:04:00,30.7,23.4,30.14,North,11,0.0,0.0,74,0.00,,,0.00,VWS V14.01,2013-03-15 13:04:00,
2013-03-15 09:09:00,31.3,23.7,30.14,North,11,0.0,0.0,73,0.00,,,0.00,VWS V14.01,2013-03-15 13:09:00,
2013-03-15 09:15:00,31.8,22.8,30.12,North,11,0.0,0.0,69,0.00,,,0.00,VWS V14.01,2013-03-15 13:15:00,
2013-03-15 09:20:00,32.4,22.0,30.12,North,11,0.0,0.0,65,0.00,,,0.00,VWS V14.01,2013-03-15 13:20:00,
2013-03-15 09:25:00,32.9,22.1,30.12,NNW,344,0.0,0.0,64,0.00,,,0.00,VWS V14.01,2013-03-15 13:25:00,
2013-03-15 09:30:00,33.4,22.5,30.11,West,263,0.0,0.0,64,0.00,,,0.00,VWS V14.01,2013-03-15 13:30:00,
2013-03-15 09:36:00,33.8,22.5,30.11,West,263,0.0,0.0,63,0.00,,,0.00,VWS V14.01,2013-03-15 13:36:00,
2013-03-15 09:41:00,34.1,22.8,30.11,SSE,147,0.0,0.0,63,0.00,,,0.00,VWS V14.01,2013-03-15 13:41:00,
2013-03-15 09:46:00,34.4,22.7,30.11,West,262,0.0,0.0,62,0.00,,,0.00,VWS V14.01,2013-03-15 13:46:00,
2013-03-15 09:51:00,34.9,22.8,30.11,West,262,0.0,0.0,61,0.00,,,0.00,VWS V14.01,2013-03-15 13:51:00,
2013-03-15 09:57:00,35.3,23.2,30.11,West,262,0.0,0.0,61,0.00,,,0.00,VWS V14.01,2013-03-15 13:57:00,
2013-03-15 10:02:00,35.9,23.4,30.10,West,262,0.0,0.0,60,0.00,,,0.00,VWS V14.01,2013-03-15 14:02:00,
2013-03-15 10:08:00,36.5,23.5,30.10,West,262,0.0,0.0,59,0.00,,,0.00,VWS V14.01,2013-03-15 14:08:00,
2013-03-15 10:13:00,37.2,23.8,30.10,West,262,0.0,0.0,58,0.00,,,0.00,VWS V14.01,2013-03-15 14:13:00,
2013-03-15 10:18:00,38.0,24.1,30.08,WSW,252,0.0,0.0,57,0.00,,,0.00,VWS V14.01,2013-03-15 14:18:00,
2013-03-15 10:24:00,38.6,24.7,30.08,WNW,287,2.0,0.0,57,0.00,,,0.00,VWS V14.01,2013-03-15 14:24:00,
2013-03-15 10:29:00,39.2,25.3,30.08,WSW,255,0.0,0.0,57,0.00,,,0.00,VWS V14.01,2013-03-15 14:29:00,
2013-03-15 10:34:00,39.9,25.1,30.08,WSW,257,0.0,0.0,55,0.00,,,0.00,VWS V14.01,2013-03-15 14:34:00,
2013-03-15 10:40:00,40.5,25.6,30.08,WSW,257,0.0,0.0,55,0.00,,,0.00,VWS V14.01,2013-03-15 14:40:00,
2013-03-15 10:45:00,41.2,26.3,30.08,WSW,258,2.0,0.0,55,0.00,,,0.00,VWS V14.01,2013-03-15 14:45:00,
2013-03-15 10:50:00,42.3,26.9,30.08,WSW,258,1.0,0.0,54,0.00,,,0.00,VWS V14.01,2013-03-15 14:50:00,
2013-03-15 10:55:00,43.3,27.3,30.08,WSW,244,2.0,0.0,53,0.00,,,0.00,VWS V14.01,2013-03-15 14:55:00,
2013-03-15 11:00:00,43.9,27.4,30.06,SW,233,3.0,0.0,52,0.00,,,0.00,VWS V14.01,2013-03-15 15:00:00,
2013-03-15 11:07:00,44.2,28.6,30.06,SW,232,0.0,0.0,54,0.00,,,0.00,VWS V14.01,2013-03-15 15:07:00,
2013-03-15 11:12:00,44.5,28.0,30.06,SW,233,0.0,0.0,52,0.00,,,0.00,VWS V14.01,2013-03-15 15:12:00,
2013-03-15 11:18:00,44.9,27.9,30.05,West,263,0.0,0.0,51,0.00,,,0.00,VWS V14.01,2013-03-15 15:18:00,
2013-03-15 11:23:00,45.2,28.2,30.05,ENE,78,0.0,0.0,51,0.00,,,0.00,VWS V14.01,2013-03-15 15:23:00,
2013-03-15 11:29:00,45.8,28.2,30.05,SSW,200,1.0,0.0,50,0.00,,,0.00,VWS V14.01,2013-03-15 15:29:00,
2013-03-15 11:34:00,46.5,28.4,30.05,North,355,1.0,0.0,49,0.00,,,0.00,VWS V14.01,2013-03-15 15:34:00,
2013-03-15 11:39:00,47.0,28.3,30.05,SW,221,0.0,0.0,48,0.00,,,0.00,VWS V14.01,2013-03-15 15:39:00,
2013-03-15 11:44:00,47.7,28.0,30.04,WSW,256,1.0,0.0,46,0.00,,,0.00,VWS V14.01,2013-03-15 15:44:00,
2013-03-15 11:49:00,48.6,27.7,30.04,NNW,338,1.0,0.0,44,0.00,,,0.00,VWS V14.01,2013-03-15 15:49:00,
2013-03-15 11:54:00,49.2,27.1,30.04,West,261,4.0,0.0,42,0.00,,,0.00,VWS V14.01,2013-03-15 15:54:00,
2013-03-15 11:59:00,49.4,27.9,30.03,West,270,3.0,0.0,43,0.00,,,0.00,VWS V14.01,2013-03-15 15:59:00,
2013-03-15 12:05:00,49.8,27.6,30.03,West,259,0.0,0.0,42,0.00,,,0.00,VWS V14.01,2013-03-15 16:05:00,
2013-03-15 12:10:00,50.5,28.3,30.03,West,277,2.0,0.0,42,0.00,,,0.00,VWS V14.01,2013-03-15 16:10:00,
2013-03-15 12:15:00,50.8,28.5,30.02,West,281,4.0,0.0,42,0.00,,,0.00,VWS V14.01,2013-03-15 16:15:00,
2013-03-15 12:20:00,50.7,28.5,30.02,NNW,331,3.0,0.0,42,0.00,,,0.00,VWS V14.01,2013-03-15 16:20:00,
2013-03-15 12:25:00,50.5,28.9,30.02,WNW,289,1.0,0.0,43,0.00,,,0.00,VWS V14.01,2013-03-15 16:25:00,
2013-03-15 12:31:00,50.7,28.5,30.02,West,267,4.0,0.0,42,0.00,,,0.00,VWS V14.01,2013-03-15 16:31:00,
2013-03-15 12:36:00,50.8,28.5,30.02,WSW,244,4.0,0.0,42,0.00,,,0.00,VWS V14.01,2013-03-15 16:36:00,
2013-03-15 12:41:00,50.8,28.5,30.02,NW,304,4.0,0.0,42,0.00,,,0.00,VWS V14.01,2013-03-15 16:41:00,
2013-03-15 12:46:00,51.0,28.1,30.01,West,269,4.0,0.0,41,0.00,,,0.00,VWS V14.01,2013-03-15 16:46:00,
2013-03-15 12:51:00,51.0,28.7,30.01,WNW,285,6.0,0.0,42,0.00,,,0.00,VWS V14.01,2013-03-15 16:51:00,
2013-03-15 12:57:00,50.7,28.5,30.01,WNW,301,5.0,0.0,42,0.00,,,0.00,VWS V14.01,2013-03-15 16:57:00,
2013-03-15 13:02:00,50.7,29.0,30.01,SW,218,3.0,0.0,43,0.00,,,0.00,VWS V14.01,2013-03-15 17:02:00,
2013-03-15 13:08:00,51.4,28.5,30.01,WNW,286,5.0,0.0,41,0.00,,,0.00,VWS V14.01,2013-03-15 17:08:00,
2013-03-15 13:13:00,51.7,28.8,30.01,SW,236,0.0,0.0,41,0.00,,,0.00,VWS V14.01,2013-03-15 17:13:00,
2013-03-15 13:18:00,52.0,28.5,30.00,SW,224,4.0,0.0,40,0.00,,,0.00,VWS V14.01,2013-03-15 17:18:00,
2013-03-15 13:23:00,51.9,29.5,30.00,WNW,293,5.0,0.0,42,0.00,,,0.00,VWS V14.01,2013-03-15 17:23:00,
2013-03-15 13:28:00,51.7,28.8,30.00,West,275,1.0,0.0,41,0.00,,,0.00,VWS V14.01,2013-03-15 17:28:00,
2013-03-15 13:33:00,52.3,29.3,29.99,WSW,258,1.0,0.0,41,0.00,,,0.00,VWS V14.01,2013-03-15 17:33:00,
2013-03-15 13:38:00,52.9,29.9,29.99,WNW,282,6.0,0.0,41,0.00,,,0.00,VWS V14.01,2013-03-15 17:38:00,
2013-03-15 13:44:00,53.1,30.0,29.98,West,276,3.0,0.0,41,0.00,,,0.00,VWS V14.01,2013-03-15 17:44:00,
2013-03-15 13:49:00,53.2,30.7,29.98,South,190,3.0,0.0,42,0.00,,,0.00,VWS V14.01,2013-03-15 17:49:00,
2013-03-15 13:54:00,53.2,30.1,29.98,West,279,5.0,0.0,41,0.00,,,0.00,VWS V14.01,2013-03-15 17:54:00,
2013-03-15 13:59:00,53.2,30.7,29.97,WSW,237,3.0,0.0,42,0.00,,,0.00,VWS V14.01,2013-03-15 17:59:00,
2013-03-15 14:04:00,53.2,30.7,29.97,South,189,2.0,0.0,42,0.00,,,0.00,VWS V14.01,2013-03-15 18:04:00,
2013-03-15 14:09:00,53.5,30.4,29.97,WNW,291,4.0,0.0,41,0.00,,,0.00,VWS V14.01,2013-03-15 18:09:00,
2013-03-15 14:15:00,53.8,30.7,29.97,WNW,294,4.0,0.0,41,0.00,,,0.00,VWS V14.01,2013-03-15 18:15:00,
2013-03-15 14:20:00,54.4,31.2,29.97,West,280,4.0,0.0,41,0.00,,,0.00,VWS V14.01,2013-03-15 18:20:00,
2013-03-15 14:25:00,54.7,31.5,29.97,WNW,283,4.0,0.0,41,0.00,,,0.00,VWS V14.01,2013-03-15 18:25:00,
2013-03-15 14:30:00,55.0,31.8,29.96,WSW,257,2.0,0.0,41,0.00,,,0.00,VWS V14.01,2013-03-15 18:30:00,
2013-03-15 14:35:00,55.6,32.3,29.96,West,277,5.0,0.0,41,0.00,,,0.00,VWS V14.01,2013-03-15 18:35:00,
2013-03-15 14:41:00,56.0,32.0,29.96,West,262,7.0,0.0,40,0.00,,,0.00,VWS V14.01,2013-03-15 18:41:00,
2013-03-15 14:46:00,55.9,32.6,29.94,WNW,298,3.0,0.0,41,0.00,,,0.00,VWS V14.01,2013-03-15 18:46:00,
2013-03-15 14:51:00,56.3,32.3,29.94,SW,228,9.0,0.0,40,0.00,,,0.00,VWS V14.01,2013-03-15 18:51:00,
2013-03-15 14:56:00,56.3,32.3,29.94,WSW,246,3.0,0.0,40,0.00,,,0.00,VWS V14.01,2013-03-15 18:56:00,
2013-03-15 15:01:00,56.2,32.8,29.94,WSW,242,5.0,0.0,41,0.00,,,0.00,VWS V14.01,2013-03-15 19:01:00,
2013-03-15 15:06:00,56.2,33.4,29.94,WNW,286,6.0,0.0,42,0.00,,,0.00,VWS V14.01,2013-03-15 19:06:00,
2013-03-15 15:12:00,56.2,33.4,29.94,WNW,286,6.0,0.0,42,0.00,,,0.00,VWS V14.01,2013-03-15 19:12:00,
2013-03-15 15:17:00,56.3,33.5,29.94,WSW,243,2.0,0.0,42,0.00,,,0.00,VWS V14.01,2013-03-15 19:17:00,
2013-03-15 15:22:00,56.7,33.9,29.94,WNW,287,4.0,0.0,42,0.00,,,0.00,VWS V14.01,2013-03-15 19:22:00,
2013-03-15 15:27:00,57.3,33.8,29.94,WNW,287,3.0,0.0,41,0.00,,,0.00,VWS V14.01,2013-03-15 19:27:00,
2013-03-15 15:33:00,57.6,33.5,29.92,WNW,282,4.0,0.0,40,0.00,,,0.00,VWS V14.01,2013-03-15 19:33:00,
2013-03-15 15:38:00,58.0,33.8,29.92,WNW,292,4.0,0.0,40,0.00,,,0.00,VWS V14.01,2013-03-15 19:38:00,
2013-03-15 15:43:00,58.1,33.9,29.92,West,275,4.0,0.0,40,0.00,,,0.00,VWS V14.01,2013-03-15 19:43:00,
2013-03-15 15:48:00,58.0,33.8,29.92,WSW,252,4.0,0.0,40,0.00,,,0.00,VWS V14.01,2013-03-15 19:48:00,
2013-03-15 15:53:00,57.6,34.1,29.92,WSW,244,4.0,0.0,41,0.00,,,0.00,VWS V14.01,2013-03-15 19:53:00,
2013-03-15 15:58:00,57.8,34.3,29.92,NNW,341,3.0,0.0,41,0.00,,,0.00,VWS V14.01,2013-03-15 19:58:00,
2013-03-15 16:04:00,57.8,33.7,29.92,WSW,248,3.0,0.0,40,0.00,,,0.00,VWS V14.01,2013-03-15 20:04:00,
2013-03-15 16:09:00,57.8,33.7,29.92,SSW,200,5.0,0.0,40,0.00,,,0.00,VWS V14.01,2013-03-15 20:09:00,
2013-03-15 16:14:00,57.3,33.8,29.92,WSW,248,3.0,0.0,41,0.00,,,0.00,VWS V14.01,2013-03-15 20:14:00,
2013-03-15 16:19:00,57.5,34.0,29.92,SW,227,2.0,0.0,41,0.00,,,0.00,VWS V14.01,2013-03-15 20:19:00,
2013-03-15 16:24:00,57.5,33.4,29.92,WSW,252,0.0,0.0,40,0.00,,,0.00,VWS V14.01,2013-03-15 20:24:00,
2013-03-15 16:29:00,57.8,33.7,29.91,West,271,2.0,0.0,40,0.00,,,0.00,VWS V14.01,2013-03-15 20:29:00,
2013-03-15 16:35:00,58.1,33.9,29.91,WNW,284,5.0,0.0,40,0.00,,,0.00,VWS V14.01,2013-03-15 20:35:00,
2013-03-15 16:40:00,58.1,33.3,29.91,SSW,205,3.0,0.0,39,0.00,,,0.00,VWS V14.01,2013-03-15 20:40:00,
2013-03-15 16:45:00,58.1,33.9,29.90,WNW,286,2.0,0.0,40,0.00,,,0.00,VWS V14.01,2013-03-15 20:45:00,
2013-03-15 16:50:00,58.3,33.5,29.90,WNW,290,4.0,0.0,39,0.00,,,0.00,VWS V14.01,2013-03-15 20:50:00,
2013-03-15 16:55:00,58.4,33.6,29.90,WSW,238,5.0,0.0,39,0.00,,,0.00,VWS V14.01,2013-03-15 20:55:00,
2013-03-15 17:00:00,58.3,34.1,29.90,West,268,3.0,0.0,40,0.00,,,0.00,VWS V14.01,2013-03-15 21:00:00,
2013-03-15 17:05:00,58.6,33.7,29.90,West,281,5.0,0.0,39,0.00,,,0.00,VWS V14.01,2013-03-15 21:05:00,
2013-03-15 17:10:00,58.7,33.8,29.90,WNW,283,3.0,0.0,39,0.00,,,0.00,VWS V14.01,2013-03-15 21:10:00,
2013-03-15 17:16:00,59.0,34.1,29.90,WNW,286,2.0,0.0,39,0.00,,,0.00,VWS V14.01,2013-03-15 21:16:00,
2013-03-15 17:21:00,59.0,33.5,29.90,West,269,1.0,0.0,38,0.00,,,0.00,VWS V14.01,2013-03-15 21:21:00,
2013-03-15 17:26:00,58.9,34.0,29.90,West,259,0.0,0.0,39,0.00,,,0.00,VWS V14.01,2013-03-15 21:26:00,
2013-03-15 17:31:00,58.9,34.0,29.90,WSW,254,1.0,0.0,39,0.00,,,0.00,VWS V14.01,2013-03-15 21:31:00,
2013-03-15 17:37:00,58.7,33.8,29.90,West,271,6.0,0.0,39,0.00,,,0.00,VWS V14.01,2013-03-15 21:37:00,
2013-03-15 17:42:00,58.6,33.7,29.90,SE,134,1.0,0.0,39,0.00,,,0.00,VWS V14.01,2013-03-15 21:42:00,
2013-03-15 17:47:00,58.7,34.5,29.89,West,262,1.0,0.0,40,0.00,,,0.00,VWS V14.01,2013-03-15 21:47:00,
2013-03-15 17:52:00,58.7,35.1,29.89,SW,234,3.0,0.0,41,0.00,,,0.00,VWS V14.01,2013-03-15 21:52:00,
2013-03-15 17:57:00,58.7,34.5,29.89,WSW,254,2.0,0.0,40,0.00,,,0.00,VWS V14.01,2013-03-15 21:57:00,
2013-03-15 18:02:00,58.6,34.4,29.89,WNW,284,4.0,0.0,40,0.00,,,0.00,VWS V14.01,2013-03-15 22:02:00,
2013-03-15 18:08:00,58.4,34.2,29.89,SW,229,1.0,0.0,40,0.00,,,0.00,VWS V14.01,2013-03-15 22:08:00,
2013-03-15 18:13:00,58.4,34.2,29.89,West,269,2.0,0.0,40,0.00,,,0.00,VWS V14.01,2013-03-15 22:13:00,
2013-03-15 18:18:00,58.6,34.4,29.89,West,265,2.0,0.0,40,0.00,,,0.00,VWS V14.01,2013-03-15 22:18:00,
2013-03-15 18:23:00,58.6,35.0,29.89,West,268,2.0,0.0,41,0.00,,,0.00,VWS V14.01,2013-03-15 22:23:00,
2013-03-15 18:29:00,58.6,35.6,29.89,West,273,0.0,0.0,42,0.00,,,0.00,VWS V14.01,2013-03-15 22:29:00,
2013-03-15 18:34:00,58.7,35.1,29.89,WNW,282,3.0,0.0,41,0.00,,,0.00,VWS V14.01,2013-03-15 22:34:00,
2013-03-15 18:39:00,59.0,34.7,29.89,West,269,3.0,0.0,40,0.00,,,0.00,VWS V14.01,2013-03-15 22:39:00,
2013-03-15 18:44:00,59.3,35.6,29.89,SW,234,5.0,0.0,41,0.00,,,0.00,VWS V14.01,2013-03-15 22:44:00,
2013-03-15 18:49:00,59.3,35.6,29.89,West,277,1.0,0.0,41,0.00,,,0.00,VWS V14.01,2013-03-15 22:49:00,
2013-03-15 18:55:00,59.2,35.5,29.89,WSW,253,1.0,0.0,41,0.00,,,0.00,VWS V14.01,2013-03-15 22:55:00,
2013-03-15 19:00:00,59.2,36.1,29.89,WSW,243,2.0,0.0,42,0.00,,,0.00,VWS V14.01,2013-03-15 23:00:00,
2013-03-15 19:05:00,58.9,35.9,29.89,West,269,0.0,0.0,42,0.00,,,0.00,VWS V14.01,2013-03-15 23:05:00,
2013-03-15 19:10:00,58.6,36.2,29.89,SW,223,1.0,0.0,43,0.00,,,0.00,VWS V14.01,2013-03-15 23:10:00,
2013-03-15 19:16:00,58.3,35.9,29.89,WSW,245,2.0,0.0,43,0.00,,,0.00,VWS V14.01,2013-03-15 23:16:00,
2013-03-15 19:21:00,58.0,36.2,29.89,West,262,0.0,0.0,44,0.00,,,0.00,VWS V14.01,2013-03-15 23:21:00,
2013-03-15 19:27:00,57.6,36.4,29.89,West,262,0.0,0.0,45,0.00,,,0.00,VWS V14.01,2013-03-15 23:27:00,
2013-03-15 19:32:00,57.3,36.7,29.89,WSW,258,0.0,0.0,46,0.00,,,0.00,VWS V14.01,2013-03-15 23:32:00,
2013-03-15 19:37:00,56.7,36.2,29.89,WSW,258,0.0,0.0,46,0.00,,,0.00,VWS V14.01,2013-03-15 23:37:00,
2013-03-15 19:42:00,56.0,36.6,29.89,WSW,258,0.0,0.0,48,0.00,,,0.00,VWS V14.01,2013-03-15 23:42:00,
2013-03-15 19:47:00,55.3,37.0,29.89,WSW,258,0.0,0.0,50,0.00,,,0.00,VWS V14.01,2013-03-15 23:47:00,
2013-03-15 19:53:00,54.7,36.9,29.89,WSW,258,0.0,0.0,51,0.00,,,0.00,VWS V14.01,2013-03-15 23:53:00,
2013-03-15 19:58:00,54.1,36.9,29.89,WSW,258,0.0,0.0,52,0.00,,,0.00,VWS V14.01,2013-03-15 23:58:00,
2013-03-15 20:03:00,53.6,36.9,29.90,WSW,258,0.0,0.0,53,0.00,,,0.00,VWS V14.01,2013-03-16 00:03:00,
2013-03-15 20:08:00,53.5,36.8,29.90,WSW,258,0.0,0.0,53,0.00,,,0.00,VWS V14.01,2013-03-16 00:08:00,
2013-03-15 20:14:00,53.8,37.1,29.90,WSW,258,1.0,0.0,53,0.00,,,0.00,VWS V14.01,2013-03-16 00:14:00,
2013-03-15 20:19:00,53.6,37.4,29.89,WSW,258,0.0,0.0,54,0.00,,,0.00,VWS V14.01,2013-03-16 00:19:00,
2013-03-15 20:24:00,53.3,37.1,29.89,WSW,258,0.0,0.0,54,0.00,,,0.00,VWS V14.01,2013-03-16 00:24:00,
2013-03-15 20:29:00,53.2,37.0,29.90,WSW,258,0.0,0.0,54,0.00,,,0.00,VWS V14.01,2013-03-16 00:29:00,
2013-03-15 20:34:00,53.1,37.4,29.90,WSW,258,0.0,0.0,55,0.00,,,0.00,VWS V14.01,2013-03-16 00:34:00,
2013-03-15 20:39:00,53.1,37.4,29.90,WNW,286,0.0,0.0,55,0.00,,,0.00,VWS V14.01,2013-03-16 00:39:00,
2013-03-15 20:45:00,52.8,37.5,29.90,WNW,286,0.0,0.0,56,0.00,,,0.00,VWS V14.01,2013-03-16 00:45:00,
2013-03-15 20:50:00,52.5,37.3,29.90,WNW,286,0.0,0.0,56,0.00,,,0.00,VWS V14.01,2013-03-16 00:50:00,
2013-03-15 20:55:00,52.0,37.2,29.90,WNW,286,0.0,0.0,57,0.00,,,0.00,VWS V14.01,2013-03-16 00:55:00,
2013-03-15 21:00:00,51.3,37.0,29.89,WNW,286,0.0,0.0,58,0.00,,,0.00,VWS V14.01,2013-03-16 01:00:00,
2013-03-15 21:05:00,50.5,37.2,29.89,WNW,286,0.0,0.0,60,0.00,,,0.00,VWS V14.01,2013-03-16 01:05:00,
2013-03-15 21:11:00,50.7,37.3,29.89,WNW,286,0.0,0.0,60,0.00,,,0.00,VWS V14.01,2013-03-16 01:11:00,
2013-03-15 21:16:00,50.8,37.8,29.88,WNW,286,0.0,0.0,61,0.00,,,0.00,VWS V14.01,2013-03-16 01:16:00,
2013-03-15 21:21:00,51.1,37.7,29.88,SSE,168,0.0,0.0,60,0.00,,,0.00,VWS V14.01,2013-03-16 01:21:00,
2013-03-15 21:27:00,51.4,37.6,29.88,WNW,286,0.0,0.0,59,0.00,,,0.00,VWS V14.01,2013-03-16 01:27:00,
2013-03-15 21:32:00,51.3,37.9,29.87,WNW,286,0.0,0.0,60,0.00,,,0.00,VWS V14.01,2013-03-16 01:32:00,
2013-03-15 21:37:00,51.0,37.2,29.87,WNW,286,0.0,0.0,59,0.00,,,0.00,VWS V14.01,2013-03-16 01:37:00,
2013-03-15 21:42:00,50.5,37.6,29.87,WNW,286,0.0,0.0,61,0.00,,,0.00,VWS V14.01,2013-03-16 01:42:00,
2013-03-15 21:47:00,50.2,37.7,29.87,WNW,286,0.0,0.0,62,0.00,,,0.00,VWS V14.01,2013-03-16 01:47:00,
2013-03-15 21:52:00,50.1,37.6,29.87,SW,229,0.0,0.0,62,0.00,,,0.00,VWS V14.01,2013-03-16 01:52:00,
2013-03-15 21:57:00,49.8,37.3,29.87,SW,229,0.0,0.0,62,0.00,,,0.00,VWS V14.01,2013-03-16 01:57:00,
2013-03-15 22:03:00,48.9,36.9,29.87,SSW,193,0.0,0.0,63,0.00,,,0.00,VWS V14.01,2013-03-16 02:03:00,
2013-03-15 22:08:00,48.6,37.4,29.87,South,191,0.0,0.0,65,0.00,,,0.00,VWS V14.01,2013-03-16 02:08:00,
2013-03-15 22:13:00,48.5,37.3,29.87,SSW,194,0.0,0.0,65,0.00,,,0.00,VWS V14.01,2013-03-16 02:13:00,
2013-03-15 22:18:00,48.3,37.1,29.86,SSW,194,0.0,0.0,65,0.00,,,0.00,VWS V14.01,2013-03-16 02:18:00,
2013-03-15 22:23:00,48.0,36.8,29.86,SSW,194,0.0,0.0,65,0.00,,,0.00,VWS V14.01,2013-03-16 02:23:00,
2013-03-15 22:28:00,47.6,36.4,29.86,SSW,194,0.0,0.0,65,0.00,,,0.00,VWS V14.01,2013-03-16 02:28:00,
2013-03-15 22:33:00,47.1,36.7,29.86,SSW,196,0.0,0.0,67,0.00,,,0.00,VWS V14.01,2013-03-16 02:33:00,
2013-03-15 22:39:00,46.8,36.8,29.86,SSW,196,0.0,0.0,68,0.00,,,0.00,VWS V14.01,2013-03-16 02:39:00,
2013-03-15 22:44:00,46.7,36.7,29.86,SSW,196,0.0,0.0,68,0.00,,,0.00,VWS V14.01,2013-03-16 02:44:00,
2013-03-15 22:49:00,46.4,36.8,29.86,SSW,196,0.0,0.0,69,0.00,,,0.00,VWS V14.01,2013-03-16 02:49:00,
2013-03-15 22:54:00,46.5,37.3,29.86,SSW,196,0.0,0.0,70,0.00,,,0.00,VWS V14.01,2013-03-16 02:54:00,
2013-03-15 23:00:00,47.1,37.8,29.86,SSW,196,1.0,0.0,70,0.00,,,0.00,VWS V14.01,2013-03-16 03:00:00,
2013-03-15 23:05:00,48.0,38.7,29.86,SSW,196,0.0,0.0,70,0.00,,,0.00,VWS V14.01,2013-03-16 03:05:00,
2013-03-15 23:10:00,48.8,38.3,29.86,WSW,245,0.0,0.0,67,0.00,,,0.00,VWS V14.01,2013-03-16 03:10:00,
2013-03-15 23:15:00,48.6,38.9,29.84,WSW,245,0.0,0.0,69,0.00,,,0.00,VWS V14.01,2013-03-16 03:15:00,
2013-03-15 23:20:00,47.7,39.5,29.84,WSW,244,0.0,0.0,73,0.00,,,0.00,VWS V14.01,2013-03-16 03:20:00,
2013-03-15 23:25:00,48.2,40.0,29.84,WSW,257,0.0,0.0,73,0.00,,,0.00,VWS V14.01,2013-03-16 03:25:00,
2013-03-15 23:30:00,47.7,39.8,29.84,WSW,257,0.0,0.0,74,0.00,,,0.00,VWS V14.01,2013-03-16 03:30:00,
2013-03-15 23:35:00,47.4,41.9,29.84,WSW,257,0.0,0.0,81,0.00,,,0.00,VWS V14.01,2013-03-16 03:35:00,
2013-03-15 23:40:00,48.5,44.2,29.84,WSW,257,0.0,0.0,85,0.00,,,0.00,VWS V14.01,2013-03-16 03:40:00,
2013-03-15 23:45:00,48.9,44.3,29.83,WSW,257,0.0,0.0,84,0.00,,,0.00,VWS V14.01,2013-03-16 03:45:00,
2013-03-15 23:51:00,48.8,43.2,29.83,WSW,257,0.0,0.0,81,0.00,,,0.00,VWS V14.01,2013-03-16 03:51:00,
2013-03-15 23:56:00,48.2,43.0,29.83,WSW,257,0.0,0.0,82,0.00,,,0.00,VWS V14.01,2013-03-16 03:56:00,